THOR ABLESTAR DEB, 3752

Orbit data source: Space-Track

THOR ABLESTAR DEB, 3752 is space debris in LEO originally from a launch on Thu, 29 Jun 1961 UTC launched from the Air Force Eastern Test Range (AFETR). Debris objects in space refer to the collection of defunct objects orbiting the Earth. Examples of debris include non-operational satellites, rocket bodies, and fragments generated from explosions, collisions, or faulty payload assembly.

Loading next visibility...
Identifier
3752, 1961-015JE
Orbit
LEO
Country
Flag of USUS
Related business
Manufacturer
Unknown
Mission
Spacecraft
Bus & Motor
Unknown
Mass
Unknown
Launch date (UTC)
1961-06-29 (65 years ago)
Launch vehicle
Unknown
Launch site
Air Force Eastern Test Range (AFETR)
Object type
Payload
Rocket body
Debris
Shape & HBR
Unknown shape, 0.1 m
Radar Cross Section
Small (<0.1 m²)

Expand to show TLE details & history
Last TLE update: 10 hours ago

TLE from 10 hours ago
0 THOR ABLESTAR DEB
1  3752U 61015JE  26100.43273095  .00000346  00000-0  55378-3 0  9996
2  3752  67.6280 262.3540 0207678 294.6469  90.9134 13.51033284796109
Epoch: 2026-04-10T10:23Z
TLE epoch observation values (Epoch: 2026-04-10T10:23:07.954Z)
Latitude
25.71875°
Longitude
-80.72018°
Altitude
1,076.453 km
Speed
7.314 km/s
True Right ascension
18h 14m 55s
True Declination
25° 35' 25"
Sunlit
Object was in daylight at epoch
Visualization orbit readout
Latitude
Unknown
Longitude
Unknown
Altitude
Unknown
Speed
Unknown
Apparent Right ascension
Unknown
Apparent Declination
Unknown
Sunlit
N/A
Visualization observer readout
Local Sidereal Time
02:49:20
Azimuth
Unknown
Elevation
Unknown
Doppler factor
Unknown
Orbital elements
Apogee altitude
1,221.406 km
Perigee altitude
912.176 km
Semi-major axis
7,444.928 km
Eccentricity
0.02077
Inclination
67.628°
RAAN
262.354°
Arg. of periapsis
294.6469°
True anomaly
93.29125°
Mean anomaly
90.9134°
Eccentric anomaly
92.10251°
Mean motion
3.37872 °/min
Orbital period
106.55 mins
BSTAR
0.00055378
Loading maneuver chart data...
Computing Atmospheric mass density...

Documentation

Showing up to 5 results
|